Regional Weather Roundup
Issued by NWS

Home | Current Version | Previous Version | Graphics & Text | Print | Product List | Glossary On
Versions: 1 2 3 4 5 6 7 8 9 10 11 12 13 14 15 16 17 18 19 20 21 22 23 24 25 26 27 28 29 30 31 32 33 34 35 36 37 38 39 40 41 42 43 44 45 46 47 48 49 50
000
ASUS43 KLOT 171203
RWRIL

ILLINOIS REGIONAL WEATHER ROUNDUP
NATIONAL WEATHER SERVICE CHICAGO/ROMEOVILLE IL
600 AM CST TUE JAN 17 2017

NOTE: "FAIR" INDICATES FEW OR NO CLOUDS BELOW 12,000 FEET WITH NO
SIGNIFICANT WEATHER AND/OR OBSTRUCTIONS TO VISIBILITY.

* THESE STATIONS ARE NOT UNDER NWS QUALITY CONTROL. THEY ALSO MAY NOT
  REPORT WEATHER SUCH AS PRECIPITATION OR FOG.

ILZ001-002-007-009-015-016-024-171300-
NORTHWEST ILLINOIS

CITY           SKY/WX    TMP DP  RH WIND       PRES   REMARKS
MOLINE         FOG       35  34  96 W9        29.85R VSB 1/2 WCI  28
6HR MIN TEMP:  35; 6HR MAX TEMP:  36;

STERLING*      FOG       35  34  96 W7        29.83S VSB 1/2 WCI  29
SAVANNA*       FOG       34  34  99 NW6       29.83S VSB 1/2 WCI  29
$$

ILZ003-004-008-010-011-017-018-171300-
NORTH CENTRAL ILLINOIS

CITY           SKY/WX    TMP DP  RH WIND       PRES   REMARKS
ROCKFORD       DRZL/FOG  35  34  96 NW7       29.82R VSB 1   WCI  29
6HR MIN TEMP:  35; 6HR MAX TEMP:  37; 6HR PCP:  0.48;

FREEPORT*      FOG       33  33  99 W6        29.84R VSB 1/2 WCI  28
ROCHELLE*      CLOUDY    34  34 100 W3        29.81S
DE KALB*       CLOUDY    35  35 100 NW9       29.80R FOG     WCI  27
$$

ILZ005-006-012>014-019>023-171300-
NORTHEAST ILLINOIS

CITY           SKY/WX    TMP DP  RH WIND       PRES   REMARKS
CHICAGO-OHARE  DRZL/FOG  37  37 100 W7        29.76R VSB 1   WCI  32
6HR MIN TEMP:  37; 6HR MAX TEMP:  38; 6HR PCP:  0.49;

CHICAGO-MIDWAY CLOUDY    38  38 100 W13       29.77R FOG     WCI  30
6HR MIN TEMP:  37; 6HR MAX TEMP:  40; 6HR PCP:  0.43;

AURORA         CLOUDY    36  34  92 W8        29.79  WCI  30
LANSING*       CLOUDY    41  41 100 W16G23    29.78R FOG
JOLIET*        FOG       38  38 100 W6        29.81R VSB 3/4 WCI  33
WAUKEGAN       CLOUDY    37  36  96 N7        29.74S FOG     WCI  32
6HR MIN TEMP:  37; 6HR MAX TEMP:  38; 6HR PCP:  0.43;

DUPAGE AIRPORT CLOUDY    37  35  92 W9        29.77R WCI  30
6HR MIN TEMP:  37; 6HR MAX TEMP:  38; 6HR PCP:  0.34;

WHEELING       LGT RAIN  37  36  96 NW9       29.77R FOG     WCI  30
6HR MIN TEMP:  37; 6HR MAX TEMP:  38; 6HR PCP:  0.29;

MORRIS*        CLOUDY    37  37  99 W10G16    29.81R WCI  30
ROMEOVILLE*    FOG       36  36 100 W10       29.79R VSB 3/4 WCI  28
NORTHERLY ISL    N/A     40  39  97 SW8         N/A
$$

LMZ740>746-171300-
SOUTHERN LAKE MICHIGAN

STATION/POSITION SKY/WX   TEMP    WIND        PRES    VSBY  WAVE
                          AIR SEA DIR/SP/G                  HT/PER
                          (F)     (DEG/KT/KT) (MB)    (MI)  (FT/S)
HARRISON CRIB              40     270/ 14/ 16   N/A
BURNHAM HARBOR             40     250/  9/ 10   N/A
CALUMET HARBOR             44     230/ 10/ 16 1006.9R
BURNS HARBOR               44     240/ 13/ 17 1008.1R
$$

ILZ025>027-034>036-040-047-049-050-058-095>099-171300-
WEST-CENTRAL ILLINOIS

CITY           SKY/WX    TMP DP  RH WIND       PRES   REMARKS
QUINCY         CLOUDY    40  40 100 W10       29.92R
GALESBURG*     FOG       36  36 100 W13       29.88R VSB 3/4 WCI  27
MACOMB*        CLOUDY    38  38 100 W15G22    29.93R WCI  29
JACKSONVILLE*  CLOUDY    41  39  94 SW13      29.92R
PITTSFIELD*    CLOUDY    41  40  97 SW14      29.94R FOG
$$

ILZ028>032-037-038-041>044-048-051>054-059>061-171300-
CENTRAL ILLINOIS

CITY           SKY/WX    TMP DP  RH WIND       PRES   REMARKS
BLOOMINGTON    CLOUDY    42  41  96 W16G22    29.86R FOG
DECATUR        CLOUDY    45  42  89 W10       29.89R
PEORIA         CLOUDY    41  41 100 W10       29.88R FOG
6HR MIN TEMP:  41; 6HR MAX TEMP:  48; 6HR PCP:  0.08;

LACON*         CLOUDY    39  39 100 SW10      29.85R FOG     WCI  32
LINCOLN*       CLOUDY    43  43 100 W8        29.89R FOG
SPRINGFIELD    CLOUDY    43  41  93 W15       29.91R FOG
6HR MIN TEMP:  43; 6HR MAX TEMP:  56; 6HR PCP:  0.04;

TAYLORVILLE    CLOUDY    43  40  91 W10       29.92R
6HR MIN TEMP:  43; 6HR MAX TEMP:  55; 6HR PCP:  0.01;

$$

ILZ033-039-045-046-055>057-062-063-171300-
EAST-CENTRAL ILLINOIS

CITY           SKY/WX    TMP DP  RH WIND       PRES   REMARKS
CHAMPAIGN      CLOUDY    45  42  89 W15       29.87R
MATTOON        CLOUDY    47  44  90 W10       29.89R
PARIS*         CLOUDY    47  45  91 W14G20    29.89R
$$

ILZ079-100>102-171300-
SOUTHWEST ILLINOIS

CITY           SKY/WX    TMP DP  RH WIND       PRES   REMARKS
ALTON          CLOUDY    41  38  86 W13       29.97R
BELLEVILLE     CLOUDY    43  41  93 W12       29.96R
CAHOKIA*       CLOUDY    44  36  73 W7        29.98R
SPARTA*        CLOUDY    45  40  84 W8        29.98R
$$

ILZ064>066-069>071-074>076-080>082-084>086-088>090-092>094-171300-
SOUTH-CENTRAL ILLINOIS

CITY           SKY/WX    TMP DP  RH WIND       PRES   REMARKS
CARBONDALE     NOT AVBL
CAIRO*         PTCLDY    50  46  87 SW7       29.99R
EFFINGHAM*     CLOUDY    47  45  92 W14       29.94R
MARION         MOCLDY    50  48  93 NW6       29.97R
MT. VERNON     CLOUDY    48  43  82 W8        29.96R
CENTRALIA*     CLOUDY    48  44  86 W12       29.95R
SALEM*         CLOUDY    48  43  82 W16       29.94R
$$

ILZ067-068-072-073-078-083-087-091-171300-
SOUTHEAST ILLINOIS

CITY           SKY/WX    TMP DP  RH WIND       PRES   REMARKS
LAWRENCEVILLE  CLOUDY    51  47  86 W13G21    29.92R
FLORA*         CLOUDY    50  45  84 W9        29.94R
HARRISBURG*    CLEAR     51  48  92 W9        29.95R
ROBINSON*      CLOUDY    51  48  92 W12       29.91R
CARMI*         PTCLDY    49  46  91 W9        29.94R
$$

ABBREVIATIONS USED IN REMARKS
   TC - TEMPERATURE IN CELSIUS
  WCI - WIND CHILL INDEX
   HX - HEAT INDEX
  VSB - VISIBILITY
$$





USA.gov is the U.S. government's official web portal to all federal, state and local government web resources and services.